User: anonymous   Login
Location: Munkebjergskolens Observatorium
(55.3864°N, 10.3987°E)
Time: 02:12:59
(UTC+02:00)
Language:

KKS-1 - Orbit

View from above orbital plane
View from above orbital plane
View from above satellite
View from above satellite

Ground track
Ground track

The orbit data is extracted from the following two-line orbital elements,

1 33499U 09002H   24176.52465035  .00001644  00000-0  23062-3 0  9990
2 33499  98.1389  78.2444 0009962 104.3966 255.8350 14.78822925829209
Epoch (UTC): 24 June 2024 12:35:29
Eccentricity: 0.0009962
inclination: 98.1389°
perigee height: 626 km
apogee height: 640 km
right ascension of ascending node: 78.2444°
argument of perigee: 104.3966°
revolutions per day: 14.78822925
mean anomaly at epoch: 255.8350°
orbit number at epoch: 82920

The dashed part of the orbit path shows where the satellite is in the earth's shadow,  

DLR